| time (UTC) | temp F | wind direction | speed MPH | gust MPH | rain 1hr in | rain 24hr in | rain mn in | humidity % | barometer mb |
| 20260901160306 | 78 | 207 | 1.0 | 2.0 | 0.00 | 0.00 | 0.00 | 68 | 1046.5 |
| 20260901155805 | 78 | 114 | 1.0 | 2.0 | 0.00 | 0.00 | 0.00 | 68 | 1046.3 |
| 20260901155300 | 77 | 169 | 1.0 | 3.0 | 0.00 | 0.00 | 0.00 | 71 | 1046.5 |
| 20260901154756 | 77 | 121 | 1.0 | 1.0 | 0.00 | 0.00 | 0.00 | 70 | 1046.8 |
| 20260901154250 | 76 | 108 | 2.0 | 2.0 | 0.00 | 0.00 | 0.00 | 72 | 1046.7 |
| 20260901153745 | 76 | 130 | 0.0 | 1.0 | 0.00 | 0.00 | 0.00 | 72 | 1046.5 |
| 20260901153245 | 76 | 79 | 2.0 | 2.0 | 0.00 | 0.00 | 0.00 | 76 | 1046.6 |
| 20260901152744 | 75 | 143 | 0.0 | 2.0 | 0.00 | 0.00 | 0.00 | 75 | 1046.6 |
| 20260901152243 | 75 | 340 | 2.0 | 2.0 | 0.00 | 0.00 | 0.00 | 75 | 1046.5 |
| 20260901151738 | 74 | 140 | 0.0 | 1.0 | 0.00 | 0.00 | 0.00 | 76 | 1046.4 |
| 20260901151233 | 74 | 73 | 2.0 | 3.0 | 0.00 | 0.00 | 0.00 | 78 | 1046.7 |
| 20260901150732 | 74 | 145 | 0.0 | 2.0 | 0.00 | 0.00 | 0.00 | 77 | 1046.7 |
| 20260901150230 | 74 | 167 | 1.0 | 2.0 | 0.00 | 0.00 | 0.00 | 77 | 1046.6 |
| 20260901145728 | 73 | 90 | 0.0 | 2.0 | 0.00 | 0.00 | 0.00 | 77 | 1046.5 |
| 20260901145228 | 73 | 90 | 1.0 | 2.0 | 0.00 | 0.00 | 0.00 | 80 | 1046.7 |
| 20260901144724 | 72 | 63 | 1.0 | 1.0 | 0.00 | 0.00 | 0.00 | 82 | 1046.8 |
| 20260901144219 | 71 | 155 | 1.0 | 2.0 | 0.00 | 0.00 | 0.00 | 84 | 1046.6 |
| 20260901143714 | 70 | 137 | 0.0 | 1.0 | 0.00 | 0.00 | 0.00 | 89 | 1046.5 |
| 20260901143210 | 69 | 139 | 0.0 | 1.0 | 0.00 | 0.00 | 0.00 | 94 | 1046.7 |
| 20260901142706 | 68 | 146 | 1.0 | 2.0 | 0.00 | 0.00 | 0.00 | 99 | 1046.8 |
| 20260901142205 | 66 | 72 | 0.0 | 2.0 | 0.00 | 0.00 | 0.00 | 99 | 1046.6 |
| 20260901141701 | 66 | 151 | 1.0 | 1.0 | 0.00 | 0.00 | 0.00 | 99 | 1046.7 |
| 20260901141201 | 65 | 160 | 0.0 | 1.0 | 0.00 | 0.00 | 0.00 | 99 | 1046.6 |
| 20260901140659 | 66 | 181 | 1.0 | 2.0 | 0.00 | 0.00 | 0.00 | 99 | 1046.9 |
| 20260901140158 | 66 | 140 | 0.0 | 0.0 | 0.00 | 0.00 | 0.00 | 99 | 1046.8 |
| 20260901135654 | 66 | 145 | 0.0 | 0.0 | 0.00 | 0.00 | 0.00 | 99 | 1046.7 |
| 20260901135148 | 65 | 148 | 0.0 | 0.0 | 0.00 | 0.00 | 0.00 | 99 | 1046.5 |
| 20260901134644 | 65 | 155 | 0.0 | 0.0 | 0.00 | 0.00 | 0.00 | 99 | 1046.6 |
| 20260901134139 | 65 | 147 | 0.0 | 0.0 | 0.00 | 0.00 | 0.00 | 99 | 1046.5 |
| 20260901133638 | 65 | 146 | 0.0 | 0.0 | 0.00 | 0.00 | 0.00 | 99 | 1046.5 |
| 20260901133137 | 64 | 153 | 0.0 | 0.0 | 0.00 | 0.00 | 0.00 | 99 | 1046.4 |
| 20260901132631 | 63 | 144 | 0.0 | 0.0 | 0.00 | 0.00 | 0.00 | 99 | 1046.5 |
| 20260901132126 | 63 | 145 | 0.0 | 0.0 | 0.00 | 0.00 | 0.00 | 99 | 1046.7 |
| 20260901131626 | 62 | 145 | 0.0 | 0.0 | 0.00 | 0.00 | 0.00 | 99 | 1046.4 |
| 20260901131120 | 61 | 145 | 0.0 | 0.0 | 0.00 | 0.00 | 0.00 | 99 | 1046.4 |
| 20260901130615 | 61 | 126 | 0.0 | 0.0 | 0.00 | 0.00 | 0.00 | 99 | 1046.6 |
| 20260901130114 | 62 | 144 | 0.0 | 0.0 | 0.00 | 0.00 | 0.00 | 99 | 1046.3 |
| 20260901125612 | 62 | 144 | 0.0 | 0.0 | 0.00 | 0.00 | 0.00 | 99 | 1046.3 |
| 20260901125108 | 61 | 144 | 0.0 | 0.0 | 0.00 | 0.00 | 0.00 | 99 | 1046.2 |
| 20260901124602 | 60 | 144 | 0.0 | 0.0 | 0.00 | 0.00 | 0.00 | 99 | 1046.2 |
| 20260901124057 | 60 | 144 | 0.0 | 0.0 | 0.00 | 0.00 | 0.00 | 99 | 1045.9 |
| 20260901123551 | 59 | 144 | 0.0 | 0.0 | 0.00 | 0.00 | 0.00 | 99 | 1046.2 |
| 20260901123051 | 59 | 144 | 0.0 | 0.0 | 0.00 | 0.00 | 0.00 | 99 | 1045.9 |
| 20260901122549 | 59 | 128 | 0.0 | 0.0 | 0.00 | 0.00 | 0.00 | 99 | 1046.0 |
| 20260901122044 | 60 | 148 | 1.0 | 1.0 | 0.00 | 0.00 | 0.00 | 99 | 1046.0 |
| 20260901121544 | 60 | 148 | 0.0 | 0.0 | 0.00 | 0.00 | 0.00 | 99 | 1045.7 |
| 20260901121039 | 59 | 149 | 0.0 | 0.0 | 0.00 | 0.00 | 0.00 | 99 | 1046.0 |
| 20260901120539 | 59 | 149 | 0.0 | 0.0 | 0.00 | 0.00 | 0.00 | 99 | 1046.1 |
| 20260901120035 | 58 | 149 | 0.0 | 0.0 | 0.00 | 0.00 | 0.00 | 99 | 1045.9 |
| 20260901115530 | 58 | 149 | 0.0 | 0.0 | 0.00 | 0.00 | 0.00 | 99 | 1046.0 |
| 20260901115027 | 59 | 149 | 0.0 | 0.0 | 0.00 | 0.00 | 0.00 | 99 | 1046.0 |
| 20260901114523 | 59 | 149 | 0.0 | 0.0 | 0.00 | 0.00 | 0.00 | 99 | 1045.9 |
| 20260901114021 | 60 | 148 | 0.0 | 0.0 | 0.00 | 0.00 | 0.00 | 99 | 1045.8 |
| 20260901113520 | 60 | 149 | 0.0 | 0.0 | 0.00 | 0.00 | 0.00 | 99 | 1045.9 |
| 20260901113016 | 60 | 149 | 0.0 | 0.0 | 0.00 | 0.00 | 0.00 | 99 | 1045.9 |
| 20260901112510 | 60 | 149 | 0.0 | 0.0 | 0.00 | 0.00 | 0.00 | 99 | 1045.6 |
| 20260901112005 | 60 | 149 | 0.0 | 0.0 | 0.00 | 0.00 | 0.00 | 99 | 1045.6 |
| 20260901111504 | 60 | 149 | 0.0 | 0.0 | 0.00 | 0.00 | 0.00 | 99 | 1045.7 |
| 20260901111003 | 60 | 149 | 0.0 | 0.0 | 0.00 | 0.00 | 0.00 | 99 | 1045.6 |
| 20260901110458 | 60 | 149 | 0.0 | 0.0 | 0.00 | 0.00 | 0.00 | 99 | 1045.6 |
| 20260901105954 | 59 | 149 | 0.0 | 0.0 | 0.00 | 0.00 | 0.00 | 99 | 1045.5 |
| 20260901105450 | 59 | 149 | 0.0 | 0.0 | 0.00 | 0.00 | 0.00 | 99 | 1045.6 |
| 20260901104950 | 60 | 149 | 0.0 | 0.0 | 0.00 | 0.00 | 0.00 | 99 | 1045.6 |
| 20260901104446 | 60 | 149 | 0.0 | 0.0 | 0.00 | 0.00 | 0.00 | 99 | 1045.7 |
| 20260901103941 | 59 | 149 | 0.0 | 0.0 | 0.00 | 0.00 | 0.00 | 99 | 1045.6 |
| 20260901103441 | 59 | 149 | 0.0 | 0.0 | 0.00 | 0.00 | 0.00 | 99 | 1045.4 |
| 20260901102936 | 59 | 149 | 0.0 | 0.0 | 0.00 | 0.00 | 0.00 | 99 | 1045.5 |
| 20260901102430 | 59 | 149 | 0.0 | 0.0 | 0.00 | 0.00 | 0.00 | 99 | 1045.4 |
| 20260901101925 | 59 | 149 | 0.0 | 0.0 | 0.00 | 0.00 | 0.00 | 99 | 1045.4 |
| 20260901101421 | 58 | 149 | 0.0 | 0.0 | 0.00 | 0.00 | 0.00 | 99 | 1045.3 |
| 20260901100920 | 58 | 149 | 0.0 | 0.0 | 0.00 | 0.00 | 0.00 | 99 | 1045.4 |
| 20260901100414 | 58 | 149 | 0.0 | 0.0 | 0.00 | 0.00 | 0.00 | 99 | 1045.3 |
| 20260901095908 | 59 | 149 | 0.0 | 0.0 | 0.00 | 0.00 | 0.00 | 99 | 1044.9 |
| 20260901095407 | 59 | 149 | 0.0 | 0.0 | 0.00 | 0.00 | 0.00 | 99 | 1045.0 |
| 20260901094900 | 59 | 127 | 0.0 | 1.0 | 0.00 | 0.00 | 0.00 | 99 | 1045.1 |
| 20260901094354 | 59 | 152 | 0.0 | 0.0 | 0.00 | 0.00 | 0.00 | 99 | 1045.1 |
| 20260901093849 | 59 | 152 | 0.0 | 1.0 | 0.00 | 0.00 | 0.00 | 99 | 1044.8 |
| 20260901093348 | 59 | 153 | 0.0 | 0.0 | 0.00 | 0.00 | 0.00 | 99 | 1044.7 |
| 20260901092845 | 59 | 153 | 0.0 | 0.0 | 0.00 | 0.00 | 0.00 | 99 | 1044.8 |
| 20260901092340 | 59 | 152 | 0.0 | 0.0 | 0.00 | 0.00 | 0.00 | 99 | 1044.6 |
| 20260901091836 | 59 | 153 | 0.0 | 0.0 | 0.00 | 0.00 | 0.00 | 99 | 1044.7 |
| 20260901091336 | 59 | 153 | 0.0 | 0.0 | 0.00 | 0.00 | 0.00 | 99 | 1044.9 |
| 20260901090831 | 59 | 152 | 0.0 | 0.0 | 0.00 | 0.00 | 0.00 | 99 | 1044.6 |
| 20260901090331 | 59 | 152 | 0.0 | 0.0 | 0.00 | 0.00 | 0.00 | 99 | 1044.8 |
| 20260901085827 | 60 | 152 | 0.0 | 0.0 | 0.00 | 0.00 | 0.00 | 99 | 1044.8 |
| 20260901085322 | 60 | 153 | 0.0 | 0.0 | 0.00 | 0.00 | 0.00 | 99 | 1044.6 |
| 20260901084819 | 61 | 153 | 0.0 | 0.0 | 0.00 | 0.00 | 0.00 | 99 | 1044.6 |
| 20260901084314 | 60 | 152 | 0.0 | 0.0 | 0.00 | 0.00 | 0.00 | 99 | 1044.7 |
| 20260901083809 | 60 | 152 | 0.0 | 0.0 | 0.00 | 0.00 | 0.00 | 99 | 1044.2 |
| 20260901083309 | 60 | 152 | 0.0 | 0.0 | 0.00 | 0.00 | 0.00 | 99 | 1044.6 |
| 20260901082807 | 60 | 152 | 0.0 | 0.0 | 0.00 | 0.00 | 0.00 | 99 | 1044.6 |
| 20260901082306 | 60 | 152 | 0.0 | 0.0 | 0.00 | 0.00 | 0.00 | 99 | 1044.7 |
| 20260901081757 | 60 | 152 | 0.0 | 0.0 | 0.00 | 0.00 | 0.00 | 99 | 1044.8 |
| 20260901081252 | 61 | 152 | 0.0 | 0.0 | 0.00 | 0.00 | 0.00 | 99 | 1044.6 |
| 20260901080747 | 61 | 153 | 0.0 | 0.0 | 0.00 | 0.00 | 0.00 | 99 | 1044.8 |
| 20260901080246 | 61 | 153 | 0.0 | 0.0 | 0.00 | 0.00 | 0.00 | 99 | 1044.8 |
| 20260901075741 | 61 | 152 | 0.0 | 0.0 | 0.00 | 0.00 | 0.00 | 99 | 1044.8 |
| 20260901075235 | 61 | 152 | 0.0 | 0.0 | 0.00 | 0.00 | 0.00 | 99 | 1044.9 |
| 20260901074730 | 60 | 152 | 0.0 | 0.0 | 0.00 | 0.00 | 0.00 | 99 | 1045.1 |
| 20260901074225 | 61 | 152 | 0.0 | 0.0 | 0.00 | 0.00 | 0.00 | 99 | 1045.2 |
| 20260901073722 | 61 | 152 | 0.0 | 0.0 | 0.00 | 0.00 | 0.00 | 99 | 1045.3 |
| 20260901073217 | 60 | 152 | 0.0 | 0.0 | 0.00 | 0.00 | 0.00 | 99 | 1045.1 |
| 20260901072712 | 61 | 152 | 0.0 | 0.0 | 0.00 | 0.00 | 0.00 | 99 | 1045.2 |
| 20260901072207 | 61 | 152 | 0.0 | 0.0 | 0.00 | 0.00 | 0.00 | 99 | 1045.2 |
| 20260901071706 | 61 | 152 | 0.0 | 0.0 | 0.00 | 0.00 | 0.00 | 99 | 1044.9 |
| 20260901071201 | 61 | 152 | 0.0 | 0.0 | 0.00 | 0.00 | 0.00 | 99 | 1045.2 |
| 20260901070655 | 61 | 152 | 0.0 | 0.0 | 0.00 | 0.00 | 0.00 | 99 | 1045.2 |
| 20260901070150 | 61 | 152 | 0.0 | 0.0 | 0.00 | 0.00 | 0.00 | 99 | 1045.2 |
| 20260901065650 | 61 | 152 | 0.0 | 0.0 | 0.00 | 0.00 | 0.00 | 99 | 1045.3 |
| 20260901065144 | 61 | 152 | 0.0 | 0.0 | 0.00 | 0.00 | 0.00 | 99 | 1045.5 |
| 20260901064641 | 61 | 152 | 0.0 | 0.0 | 0.00 | 0.00 | 0.00 | 99 | 1045.5 |
| 20260901064138 | 61 | 152 | 0.0 | 0.0 | 0.00 | 0.00 | 0.00 | 99 | 1045.4 |
| 20260901063635 | 62 | 152 | 0.0 | 0.0 | 0.00 | 0.00 | 0.00 | 99 | 1045.2 |
| 20260901063130 | 62 | 152 | 0.0 | 0.0 | 0.00 | 0.00 | 0.00 | 99 | 1045.5 |
| 20260901062626 | 62 | 152 | 0.0 | 0.0 | 0.00 | 0.00 | 0.00 | 99 | 1045.4 |
| 20260901062121 | 62 | 152 | 0.0 | 0.0 | 0.00 | 0.00 | 0.00 | 99 | 1045.2 |
| 20260901061617 | 63 | 152 | 0.0 | 0.0 | 0.00 | 0.00 | 0.00 | 99 | 1045.1 |
| 20260901061111 | 63 | 152 | 0.0 | 0.0 | 0.00 | 0.00 | 0.00 | 99 | 1045.2 |
| 20260901060606 | 63 | 152 | 0.0 | 0.0 | 0.00 | 0.00 | 0.00 | 99 | 1045.3 |
| 20260901055556 | 63 | 152 | 0.0 | 0.0 | 0.00 | 0.00 | 0.00 | 99 | 1045.4 |
| 20260901055054 | 63 | 152 | 0.0 | 0.0 | 0.00 | 0.00 | 0.00 | 99 | 1045.4 |
| 20260901054550 | 63 | 152 | 0.0 | 0.0 | 0.00 | 0.00 | 0.00 | 99 | 1045.3 |
| 20260901054046 | 64 | 152 | 0.0 | 0.0 | 0.00 | 0.00 | 0.00 | 99 | 1045.3 |
| 20260901053542 | 64 | 152 | 0.0 | 0.0 | 0.00 | 0.00 | 0.00 | 99 | 1045.3 |
| 20260901053037 | 63 | 152 | 0.0 | 0.0 | 0.00 | 0.00 | 0.00 | 99 | 1045.2 |
| 20260901052538 | 63 | 152 | 0.0 | 0.0 | 0.00 | 0.00 | 0.00 | 99 | 1045.3 |
| 20260901052032 | 63 | 152 | 0.0 | 0.0 | 0.00 | 0.00 | 0.00 | 99 | 1045.2 |
| 20260901051527 | 63 | 152 | 0.0 | 0.0 | 0.00 | 0.00 | 0.00 | 99 | 1045.2 |
| 20260901051026 | 64 | 152 | 0.0 | 0.0 | 0.00 | 0.00 | 0.00 | 99 | 1045.0 |
| 20260901050521 | 64 | 152 | 0.0 | 0.0 | 0.00 | 0.00 | 0.00 | 99 | 1045.2 |
| 20260901050016 | 64 | 152 | 0.0 | 0.0 | 0.00 | 0.00 | 0.00 | 99 | 1045.1 |
| 20260901045511 | 64 | 152 | 0.0 | 0.0 | 0.00 | 0.00 | 0.00 | 99 | 1045.1 |
| 20260901045006 | 64 | 152 | 0.0 | 0.0 | 0.00 | 0.00 | 0.00 | 99 | 1045.1 |
| 20260901044502 | 64 | 152 | 0.0 | 0.0 | 0.00 | 0.00 | 0.00 | 99 | 1044.7 |
| 20260901043958 | 64 | 152 | 0.0 | 0.0 | 0.00 | 0.00 | 0.00 | 99 | 1044.7 |
| 20260901043453 | 64 | 152 | 0.0 | 0.0 | 0.00 | 0.00 | 0.00 | 99 | 1044.8 |
| 20260901042948 | 64 | 152 | 0.0 | 0.0 | 0.00 | 0.00 | 0.00 | 99 | 1044.9 |
| 20260901042447 | 64 | 152 | 0.0 | 0.0 | 0.00 | 0.00 | 0.00 | 99 | 1044.8 |
| 20260901041943 | 65 | 152 | 0.0 | 0.0 | 0.00 | 0.00 | 0.00 | 99 | 1044.9 |
| 20260901041438 | 65 | 152 | 0.0 | 0.0 | 0.00 | 0.00 | 0.00 | 99 | 1044.8 |
| 20260901040937 | 65 | 152 | 0.0 | 0.0 | 0.00 | 0.00 | 0.00 | 99 | 1044.6 |
| 20260901040432 | 65 | 152 | 0.0 | 0.0 | 0.00 | 0.00 | 0.00 | 99 | 1044.8 |
| 20260901035925 | 65 | 152 | 0.0 | 0.0 | 0.00 | 0.00 | 0.00 | 99 | 1044.7 |
| 20260901035424 | 66 | 152 | 0.0 | 0.0 | 0.00 | 0.00 | 0.00 | 99 | 1044.7 |
| 20260901034923 | 66 | 152 | 0.0 | 0.0 | 0.00 | 0.00 | 0.00 | 99 | 1044.9 |
| 20260901034418 | 66 | 152 | 0.0 | 0.0 | 0.00 | 0.00 | 0.00 | 98 | 1044.7 |
| 20260901033913 | 66 | 152 | 0.0 | 0.0 | 0.00 | 0.00 | 0.00 | 98 | 1044.6 |
| 20260901033412 | 66 | 152 | 0.0 | 0.0 | 0.00 | 0.00 | 0.00 | 98 | 1044.7 |
| 20260901032911 | 67 | 152 | 0.0 | 0.0 | 0.00 | 0.00 | 0.00 | 97 | 1044.6 |
| 20260901032410 | 67 | 152 | 0.0 | 0.0 | 0.00 | 0.00 | 0.00 | 97 | 1044.6 |
| 20260901031905 | 67 | 152 | 0.0 | 0.0 | 0.00 | 0.00 | 0.00 | 97 | 1044.8 |
| 20260901031401 | 67 | 152 | 0.0 | 0.0 | 0.00 | 0.00 | 0.00 | 96 | 1044.5 |
| 20260901030900 | 68 | 152 | 0.0 | 0.0 | 0.00 | 0.00 | 0.00 | 96 | 1044.7 |
| 20260901030356 | 68 | 152 | 0.0 | 0.0 | 0.00 | 0.00 | 0.00 | 96 | 1044.7 |
| 20260901025855 | 68 | 152 | 0.0 | 0.0 | 0.00 | 0.00 | 0.00 | 95 | 1044.6 |
| 20260901025350 | 69 | 152 | 0.0 | 0.0 | 0.00 | 0.00 | 0.00 | 94 | 1044.3 |
| 20260901024845 | 69 | 152 | 0.0 | 0.0 | 0.00 | 0.00 | 0.00 | 93 | 1044.5 |
| 20260901024344 | 69 | 152 | 0.0 | 0.0 | 0.00 | 0.00 | 0.00 | 93 | 1044.3 |
| 20260901023843 | 69 | 152 | 0.0 | 0.0 | 0.00 | 0.00 | 0.00 | 93 | 1044.5 |
| 20260901023338 | 69 | 152 | 0.0 | 0.0 | 0.00 | 0.00 | 0.00 | 93 | 1044.3 |
| 20260901022833 | 69 | 152 | 0.0 | 0.0 | 0.00 | 0.00 | 0.00 | 93 | 1044.2 |
| 20260901022329 | 70 | 152 | 0.0 | 0.0 | 0.00 | 0.00 | 0.00 | 92 | 1044.2 |
| 20260901021824 | 70 | 152 | 0.0 | 0.0 | 0.00 | 0.00 | 0.00 | 91 | 1044.1 |
| 20260901021319 | 70 | 152 | 0.0 | 0.0 | 0.00 | 0.00 | 0.00 | 90 | 1044.2 |
| 20260901020814 | 71 | 152 | 0.0 | 0.0 | 0.00 | 0.00 | 0.00 | 89 | 1044.5 |
| 20260901020309 | 71 | 152 | 0.0 | 0.0 | 0.00 | 0.00 | 0.00 | 89 | 1044.1 |
| 20260901015804 | 71 | 152 | 0.0 | 0.0 | 0.00 | 0.00 | 0.00 | 88 | 1044.1 |
| 20260901015301 | 71 | 152 | 0.0 | 0.0 | 0.00 | 0.00 | 0.00 | 87 | 1044.1 |
| 20260901014759 | 72 | 152 | 0.0 | 0.0 | 0.00 | 0.00 | 0.00 | 87 | 1044.0 |
| 20260901014255 | 72 | 152 | 0.0 | 0.0 | 0.00 | 0.00 | 0.00 | 86 | 1044.0 |
| 20260901013751 | 73 | 152 | 0.0 | 0.0 | 0.00 | 0.00 | 0.00 | 84 | 1043.8 |
| 20260901013246 | 73 | 152 | 0.0 | 0.0 | 0.00 | 0.00 | 0.00 | 82 | 1044.0 |
| 20260901012742 | 73 | 152 | 0.0 | 0.0 | 0.00 | 0.00 | 0.00 | 81 | 1043.8 |
| 20260901012241 | 74 | 152 | 0.0 | 0.0 | 0.00 | 0.00 | 0.00 | 81 | 1043.7 |
| 20260901011737 | 74 | 152 | 0.0 | 0.0 | 0.00 | 0.00 | 0.00 | 80 | 1043.6 |
| 20260901011232 | 75 | 152 | 0.0 | 0.0 | 0.00 | 0.00 | 0.00 | 78 | 1043.5 |
| 20260901010726 | 75 | 152 | 0.0 | 0.0 | 0.00 | 0.00 | 0.00 | 77 | 1043.6 |
| 20260901010221 | 76 | 152 | 0.0 | 0.0 | 0.00 | 0.00 | 0.00 | 78 | 1043.8 |
| 20260901005720 | 76 | 152 | 0.0 | 0.0 | 0.00 | 0.00 | 0.00 | 76 | 1043.9 |
| 20260901005215 | 76 | 145 | 0.0 | 0.0 | 0.00 | 0.00 | 0.00 | 76 | 1043.8 |
| 20260901004715 | 76 | 153 | 1.0 | 1.0 | 0.00 | 0.00 | 0.00 | 76 | 1043.8 |
| 20260901004209 | 77 | 151 | 0.0 | 0.0 | 0.00 | 0.00 | 0.00 | 77 | 1043.6 |
| 20260901003703 | 77 | 151 | 0.0 | 0.0 | 0.00 | 0.00 | 0.00 | 75 | 1043.5 |
| 20260901003203 | 78 | 151 | 0.0 | 0.0 | 0.00 | 0.00 | 0.00 | 73 | 1043.7 |
| 20260901002657 | 78 | 152 | 0.0 | 1.0 | 0.00 | 0.00 | 0.00 | 73 | 1043.5 |
| 20260901002152 | 79 | 141 | 0.0 | 0.0 | 0.00 | 0.00 | 0.00 | 72 | 1043.4 |
| 20260901001648 | 79 | 141 | 0.0 | 0.0 | 0.00 | 0.00 | 0.00 | 71 | 1043.4 |
| 20260901001143 | 80 | 155 | 0.0 | 0.0 | 0.00 | 0.00 | 0.00 | 70 | 1043.4 |
| 20260901000638 | 80 | 155 | 0.0 | 0.0 | 0.00 | 0.00 | 0.00 | 69 | 1043.4 |
| 20260901000133 | 81 | 136 | 0.0 | 1.0 | 0.00 | 0.00 | 0.00 | 68 | 1043.4 |
| 20260831235627 | 80 | 136 | 0.0 | 0.0 | 0.00 | 0.00 | 0.00 | 66 | 1043.3 |
| 20260831235122 | 81 | 136 | 0.0 | 0.0 | 0.00 | 0.00 | 0.00 | 67 | 1043.5 |
| 20260831234621 | 81 | 136 | 0.0 | 0.0 | 0.00 | 0.00 | 0.00 | 66 | 1043.3 |
| 20260831234117 | 82 | 136 | 0.0 | 0.0 | 0.00 | 0.00 | 0.00 | 65 | 1043.2 |
| 20260831233612 | 83 | 135 | 0.0 | 0.0 | 0.00 | 0.00 | 0.00 | 64 | 1043.3 |
| 20260831233108 | 84 | 157 | 0.0 | 0.0 | 0.00 | 0.00 | 0.00 | 63 | 1043.2 |
| 20260831232603 | 85 | 140 | 0.0 | 0.0 | 0.00 | 0.00 | 0.00 | 59 | 1043.1 |
| 20260831232059 | 87 | 148 | 0.0 | 1.0 | 0.00 | 0.00 | 0.00 | 57 | 1043.3 |
| 20260831231555 | 86 | 63 | 0.0 | 1.0 | 0.00 | 0.00 | 0.00 | 56 | 1043.2 |
| 20260831231050 | 87 | 145 | 0.0 | 2.0 | 0.00 | 0.00 | 0.00 | 56 | 1043.2 |
| 20260831230545 | 87 | 139 | 0.0 | 1.0 | 0.00 | 0.00 | 0.00 | 57 | 1043.3 |
| 20260831230040 | 86 | 302 | 1.0 | 2.0 | 0.00 | 0.00 | 0.00 | 58 | 1043.3 |
| 20260831225535 | 87 | 121 | 1.0 | 1.0 | 0.00 | 0.00 | 0.00 | 58 | 1043.1 |
| 20260831225030 | 88 | 147 | 0.0 | 1.0 | 0.00 | 0.00 | 0.00 | 56 | 1043.2 |
| 20260831224525 | 88 | 80 | 2.0 | 2.0 | 0.00 | 0.00 | 0.00 | 54 | 1043.2 |
| 20260831224020 | 88 | 145 | 1.0 | 2.0 | 0.00 | 0.00 | 0.00 | 55 | 1043.2 |
| 20260831223515 | 89 | 141 | 1.0 | 1.0 | 0.00 | 0.00 | 0.00 | 54 | 1043.2 |
| 20260831223012 | 89 | 162 | 0.0 | 2.0 | 0.00 | 0.00 | 0.00 | 55 | 1043.1 |
| 20260831222508 | 89 | 170 | 0.0 | 1.0 | 0.00 | 0.00 | 0.00 | 55 | 1042.9 |
| 20260831222007 | 89 | 133 | 0.0 | 1.0 | 0.00 | 0.00 | 0.00 | 55 | 1042.8 |
| 20260831221503 | 89 | 159 | 1.0 | 1.0 | 0.00 | 0.00 | 0.00 | 57 | 1042.8 |
| 20260831220958 | 88 | 172 | 1.0 | 1.0 | 0.00 | 0.00 | 0.00 | 54 | 1042.8 |
| 20260831220453 | 90 | 156 | 0.0 | 1.0 | 0.00 | 0.00 | 0.00 | 52 | 1042.7 |
| 20260831215948 | 90 | 145 | 0.0 | 1.0 | 0.00 | 0.00 | 0.00 | 51 | 1042.9 |
| 20260831215444 | 89 | 162 | 0.0 | 1.0 | 0.00 | 0.00 | 0.00 | 54 | 1043.1 |
| 20260831214940 | 89 | 148 | 1.0 | 2.0 | 0.00 | 0.00 | 0.00 | 57 | 1042.8 |
| 20260831214437 | 89 | 211 | 2.0 | 2.0 | 0.00 | 0.00 | 0.00 | 53 | 1042.8 |
| 20260831213933 | 89 | 162 | 0.0 | 1.0 | 0.00 | 0.00 | 0.00 | 55 | 1042.9 |
| 20260831213429 | 89 | 132 | 0.0 | 2.0 | 0.00 | 0.00 | 0.00 | 55 | 1042.7 |
| 20260831212929 | 89 | 149 | 1.0 | 1.0 | 0.00 | 0.00 | 0.00 | 54 | 1042.9 |
| 20260831212426 | 89 | 152 | 0.0 | 2.0 | 0.00 | 0.00 | 0.00 | 55 | 1042.9 |
| 20260831211925 | 89 | 99 | 0.0 | 1.0 | 0.00 | 0.00 | 0.00 | 56 | 1043.0 |
| 20260831211420 | 90 | 340 | 1.0 | 2.0 | 0.00 | 0.00 | 0.00 | 54 | 1042.8 |
| 20260831210914 | 89 | 139 | 1.0 | 2.0 | 0.00 | 0.00 | 0.00 | 57 | 1042.8 |
| 20260831210409 | 89 | 93 | 1.0 | 3.0 | 0.00 | 0.00 | 0.00 | 56 | 1042.8 |
| 20260831205905 | 89 | 56 | 2.0 | 2.0 | 0.00 | 0.00 | 0.00 | 58 | 1043.0 |
| 20260831205400 | 89 | 175 | 2.0 | 2.0 | 0.00 | 0.00 | 0.00 | 56 | 1043.0 |
| 20260831204854 | 89 | 334 | 1.0 | 2.0 | 0.00 | 0.00 | 0.00 | 60 | 1043.0 |
| 20260831204349 | 89 | 73 | 1.0 | 2.0 | 0.00 | 0.00 | 0.00 | 57 | 1043.0 |
| 20260831203848 | 89 | 200 | 1.0 | 3.0 | 0.00 | 0.00 | 0.00 | 55 | 1043.0 |
| 20260831203343 | 88 | 130 | 1.0 | 2.0 | 0.00 | 0.00 | 0.00 | 55 | 1042.7 |
| 20260831202841 | 89 | 201 | 2.0 | 3.0 | 0.00 | 0.00 | 0.00 | 61 | 1042.8 |
| 20260831202336 | 88 | 150 | 0.0 | 3.0 | 0.00 | 0.00 | 0.00 | 61 | 1042.8 |
| 20260831201836 | 88 | 102 | 1.0 | 2.0 | 0.00 | 0.00 | 0.00 | 58 | 1042.7 |
| 20260831201335 | 88 | 168 | 1.0 | 3.0 | 0.00 | 0.00 | 0.00 | 57 | 1042.7 |
| 20260831200831 | 89 | 232 | 1.0 | 3.0 | 0.00 | 0.00 | 0.00 | 56 | 1042.9 |
| 20260831200326 | 89 | 159 | 0.0 | 1.0 | 0.00 | 0.00 | 0.00 | 59 | 1042.5 |
| 20260831195821 | 89 | 232 | 3.0 | 3.0 | 0.00 | 0.00 | 0.00 | 59 | 1042.5 |
| 20260831195317 | 87 | 138 | 1.0 | 3.0 | 0.00 | 0.00 | 0.00 | 65 | 1042.5 |
| 20260831194812 | 87 | 310 | 0.0 | 2.0 | 0.00 | 0.00 | 0.00 | 63 | 1042.6 |
| 20260831194307 | 87 | 170 | 1.0 | 1.0 | 0.00 | 0.00 | 0.00 | 61 | 1042.6 |
| 20260831193806 | 87 | 72 | 2.0 | 2.0 | 0.00 | 0.00 | 0.00 | 63 | 1042.5 |
| 20260831193301 | 87 | 135 | 1.0 | 3.0 | 0.00 | 0.00 | 0.00 | 64 | 1042.6 |
| 20260831192756 | 87 | 113 | 0.0 | 1.0 | 0.00 | 0.00 | 0.00 | 65 | 1042.7 |
| 20260831192251 | 86 | 129 | 1.0 | 5.0 | 0.00 | 0.00 | 0.00 | 68 | 1042.8 |
| 20260831191747 | 86 | 175 | 1.0 | 3.0 | 0.00 | 0.00 | 0.00 | 65 | 1042.7 |
| 20260831191243 | 86 | 322 | 2.0 | 2.0 | 0.00 | 0.00 | 0.00 | 66 | 1042.3 |
| 20260831190738 | 86 | 175 | 2.0 | 3.0 | 0.00 | 0.00 | 0.00 | 65 | 1042.5 |
| 20260831190233 | 87 | 135 | 0.0 | 2.0 | 0.00 | 0.00 | 0.00 | 64 | 1042.7 |
| 20260831185727 | 87 | 101 | 1.0 | 2.0 | 0.00 | 0.00 | 0.00 | 66 | 1042.6 |
| 20260831185223 | 86 | 88 | 1.0 | 3.0 | 0.00 | 0.00 | 0.00 | 67 | 1042.7 |
| 20260831184722 | 87 | 175 | 1.0 | 1.0 | 0.00 | 0.00 | 0.00 | 63 | 1042.5 |
| 20260831184218 | 86 | 110 | 3.0 | 3.0 | 0.00 | 0.00 | 0.00 | 65 | 1042.5 |
| 20260831183717 | 85 | 306 | 1.0 | 5.0 | 0.00 | 0.00 | 0.00 | 69 | 1042.5 |
| 20260831183212 | 85 | 110 | 1.0 | 3.0 | 0.00 | 0.00 | 0.00 | 70 | 1042.7 |
| 20260831182711 | 85 | 297 | 1.0 | 2.0 | 0.00 | 0.00 | 0.00 | 71 | 1042.7 |
| 20260831182206 | 83 | 160 | 1.0 | 3.0 | 0.00 | 0.00 | 0.00 | 76 | 1042.5 |
| 20260831181701 | 85 | 111 | 1.0 | 1.0 | 0.00 | 0.00 | 0.00 | 72 | 1042.8 |
| 20260831181155 | 85 | 245 | 2.0 | 3.0 | 0.00 | 0.00 | 0.00 | 73 | 1042.7 |
| 20260831180651 | 83 | 148 | 1.0 | 2.0 | 0.00 | 0.00 | 0.00 | 75 | 1042.7 |
| 20260831180146 | 83 | 188 | 2.0 | 2.0 | 0.00 | 0.00 | 0.00 | 75 | 1042.5 |
| 20260831175645 | 83 | 157 | 0.0 | 2.0 | 0.00 | 0.00 | 0.00 | 77 | 1042.7 |
| 20260831175142 | 83 | 153 | 1.0 | 3.0 | 0.00 | 0.00 | 0.00 | 76 | 1042.9 |
| 20260831174637 | 84 | 176 | 2.0 | 3.0 | 0.00 | 0.00 | 0.00 | 76 | 1042.7 |
| 20260831174132 | 83 | 135 | 0.0 | 2.0 | 0.00 | 0.00 | 0.00 | 77 | 1042.8 |
| 20260831173630 | 82 | 124 | 0.0 | 1.0 | 0.00 | 0.00 | 0.00 | 78 | 1043.0 |
| 20260831173127 | 82 | 85 | 2.0 | 3.0 | 0.00 | 0.00 | 0.00 | 78 | 1043.1 |
| 20260831172626 | 82 | 74 | 2.0 | 3.0 | 0.00 | 0.00 | 0.00 | 79 | 1043.2 |
| 20260831172126 | 82 | 161 | 0.0 | 2.0 | 0.00 | 0.00 | 0.00 | 78 | 1043.2 |
| 20260831171621 | 82 | 175 | 1.0 | 2.0 | 0.00 | 0.00 | 0.00 | 80 | 1043.2 |
| 20260831171119 | 81 | 144 | 0.0 | 1.0 | 0.00 | 0.00 | 0.00 | 81 | 1043.2 |
| 20260831170615 | 81 | 170 | 3.0 | 3.0 | 0.00 | 0.00 | 0.00 | 81 | 1043.1 |
| 20260831170112 | 80 | 121 | 1.0 | 2.0 | 0.00 | 0.00 | 0.00 | 83 | 1043.0 |
| 20260831165607 | 80 | 144 | 0.0 | 1.0 | 0.00 | 0.00 | 0.00 | 84 | 1043.0 |
| 20260831165104 | 80 | 161 | 0.0 | 1.0 | 0.00 | 0.00 | 0.00 | 85 | 1043.0 |
| 20260831164559 | 79 | 146 | 0.0 | 2.0 | 0.00 | 0.00 | 0.00 | 87 | 1043.0 |
| 20260831164054 | 79 | 89 | 2.0 | 2.0 | 0.00 | 0.00 | 0.00 | 87 | 1042.7 |
| 20260831163549 | 79 | 70 | 2.0 | 2.0 | 0.00 | 0.00 | 0.00 | 86 | 1042.9 |
| 20260831163045 | 79 | 125 | 0.0 | 1.0 | 0.00 | 0.00 | 0.00 | 87 | 1042.8 |
| 20260831162544 | 79 | 166 | 0.0 | 1.0 | 0.00 | 0.00 | 0.00 | 86 | 1042.8 |
| 20260831162042 | 78 | 69 | 4.0 | 5.0 | 0.00 | 0.00 | 0.00 | 86 | 1042.7 |
| 20260831161539 | 77 | 143 | 0.0 | 1.0 | 0.00 | 0.00 | 0.00 | 89 | 1042.7 |
| 20260831161035 | 77 | 142 | 0.0 | 3.0 | 0.00 | 0.00 | 0.00 | 91 | 1042.7 |
| 20260831160533 | 76 | 140 | 0.0 | 1.0 | 0.00 | 0.00 | 0.00 | 92 | 1042.7 |